Home > Weather > Sibiu > Past weeks

Flag for Romania Past Weather in Sibiu, Romania — Yesterday and Last 2 Weeks

Now
64 °F

Clear.


Feels Like: 64 °F
Forecast: 62 / 83 °F
Wind: No wind

Location: Sibiu Airport

Current Time: Jul 29, 2016 at 3:15:36 AM

Latest Report: Jul 29, 2016 at 2:00 AM


Visibility: 10 mi

Pressure: 30.01 "Hg

Humidity: 83%

Dew Point: 59 °F

Location of SibiuLocation

Past Weather in Sibiu — Graph

°F

Sibiu Temperature Yesterday

Maximum temperature yesterday: 86 °F (at 4:00 PM)
Minimum temperature yesterday: 57 °F (at 6:30 AM)
Average temperature yesterday: 72 °F

High & Low Weather Summary for the Past Weeks

 TemperatureHumidityPressure
High90 °F (Jul 14, 1:30 PM)100% (Jul 14, 5:30 AM)30.09 "Hg (Jul 14, 5:30 AM)
Low54 °F (Jul 21, 5:00 AM)35% (Jul 24, 5:30 PM)29.74 "Hg (Jul 14, 11:00 AM)
Average70 °F71%30.00 "Hg
* Reported Jul 14 2:00 AM — Jul 29 2:00 AM, Sibiu, Weather by CustomWeather, © 2016

Note: Actual official high and low records may vary slightly from our data, if they occured in-between our weather recording intervals... More about our weather records

Advertising

Sibiu Weather History for the Previous 24 Hours

Scroll right to see more
 ConditionsComfort  
Time TempWeatherWind HumidityBarometerVisibility
2:00 AM
Fri, Jul 29
64 °FClear.No wind83%30.01 "Hg10 mi
1:00 AM64 °FClear.2 mph83%30.01 "Hg10 mi
12:00 AM68 °FClear.6 mph78%30.01 "Hg10 mi
11:00 PM
Thu, Jul 28
68 °FClear.3 mph83%30.01 "Hg10 mi
10:00 PM68 °FClear.3 mph83%30.01 "Hg10 mi
8:30 PM72 °FSunny.8 mph73%30.01 "Hg10 mi
8:00 PM73 °FSunny.7 mph74%29.98 "Hg10 mi
7:30 PM77 °FPassing clouds.8 mph65%29.98 "HgN/A
7:00 PM77 °FPassing clouds.8 mph65%29.98 "HgN/A
6:30 PM79 °FScattered clouds.10 mph65%29.98 "HgN/A
6:00 PM81 °FScattered clouds.8 mph58%29.98 "HgN/A
5:30 PM79 °FThundershowers. Scattered clouds.8 mph58%30.01 "HgN/A
5:00 PM79 °FScattered clouds.13 mph58%30.01 "HgN/A
4:30 PM84 °FPassing clouds.6 mph45%30.01 "HgN/A
4:00 PM86 °FPassing clouds.5 mph43%30.01 "HgN/A
3:30 PM84 °FPassing clouds.6 mph45%30.01 "HgN/A
3:00 PM84 °FSunny.6 mph45%30.01 "Hg10 mi
2:30 PM84 °FPassing clouds.6 mph45%30.04 "HgN/A
2:00 PM82 °FPassing clouds.7 mph45%30.04 "HgN/A
1:30 PM82 °FSunny.5 mph48%30.04 "Hg10 mi
1:00 PM82 °FPassing clouds.5 mph48%30.04 "HgN/A
12:30 PM82 °FSunny.2 mph55%30.04 "Hg10 mi
12:00 PM79 °FSunny.3 mph58%30.04 "Hg10 mi
11:30 AM77 °FSunny.3 mph61%30.04 "Hg10 mi
11:00 AM75 °FSunny.5 mph65%30.07 "Hg10 mi
10:30 AM73 °FPassing clouds.3 mph65%30.07 "HgN/A
10:00 AM72 °FPassing clouds.5 mph69%30.07 "HgN/A
9:30 AM70 °FPassing clouds.5 mph73%30.07 "HgN/A
9:00 AM68 °FSunny.6 mph78%30.07 "Hg10 mi
8:30 AM66 °FSunny.5 mph83%30.07 "Hg10 mi
8:00 AM63 °FSunny.5 mph94%30.07 "Hg10 mi
7:30 AM63 °FClear.2 mph88%30.07 "Hg4 mi
7:00 AM59 °FClear.2 mph100%30.07 "Hg4 mi
6:30 AM57 °FClear.1 mph100%30.07 "Hg5 mi
6:00 AM59 °FCool.2 mph100%30.07 "Hg5 mi
5:30 AM59 °FClear.2 mph88%30.07 "Hg10 mi
5:00 AM59 °FClear.1 mph100%30.04 "Hg10 mi
4:00 AM63 °FClear.No wind83%30.04 "Hg10 mi
3:00 AM61 °FClear.No wind100%30.04 "Hg10 mi
Weather by CustomWeather, © 2016

See weather overviewHow to use our weather pages